TIBA-1

Last updated on Dec. 12, 2019, 12:02 a.m. UTC

1 44800U 19080A   19344.90798506  .00000176  00000-0  10000-3 0  9997
2 44800   0.0668 262.5717 0002048 351.6218 187.5166  1.00269987   217
UTC
Height (km)
Latitude
Longitude
Inclination
Orbital Period
UTC large
Height (km)
Speed (km/s)
/
Latitude / Longitude
Inclination (degrees)
Orbital Period (minutes)
Azimuth
Elevation
Range (km)
Doppler Factor
iOS Compass Heading
iOS Angle

Next 30 passes for location: Hong Kong

Rise time Rise Azimuth (degrees) Set time Set Azimuth (degrees) Duration Max altitude (degrees)

No matching passes for this satellites